Time,TemperatureF,DewpointF,PressureIn,WindDirection,WindDirectionDegrees,WindSpeedMPH,WindSpeedGustMPH,Humidity,HourlyPrecipIn,Conditions,Clouds,dailyrainin,SoftwareType,DateUTC
2013-05-24 09:00:00,78.8,73.6,30.00,ENE,75,9.0,15.0,84,0.00,,,0.18,Wunderground v.1.15,2013-05-24 13:00:00,
2013-05-24 09:10:00,79.2,73.2,30.00,East,92,12.0,13.0,82,0.00,,,0.18,Wunderground v.1.15,2013-05-24 13:10:00,
2013-05-24 09:20:00,79.2,73.6,30.00,East,90,10.0,10.0,83,0.00,,,0.18,Wunderground v.1.15,2013-05-24 13:20:00,
2013-05-24 09:30:00,78.5,73.3,30.01,East,93,9.0,10.0,84,0.00,,,0.18,Wunderground v.1.15,2013-05-24 13:30:00,
2013-05-24 09:40:00,78.1,73.2,30.01,East,94,7.0,7.0,85,0.00,,,0.18,Wunderground v.1.15,2013-05-24 13:40:00,
2013-05-24 09:50:00,78.3,73.4,30.00,ENE,66,7.0,7.0,85,0.00,,,0.18,Wunderground v.1.15,2013-05-24 13:50:00,
2013-05-24 10:00:00,78.3,73.4,30.01,ESE,105,8.0,15.0,85,0.00,,,0.18,Wunderground v.1.15,2013-05-24 14:00:00,
2013-05-24 10:10:00,78.1,74.3,30.01,East,80,7.0,7.0,88,0.00,,,0.19,Wunderground v.1.15,2013-05-24 14:10:00,
2013-05-24 10:20:00,77.6,74.1,30.01,ENE,72,6.0,6.0,89,0.19,,,0.26,Wunderground v.1.15,2013-05-24 14:20:00,
2013-05-24 10:30:00,76.0,72.9,30.01,SE,130,11.0,13.0,90,0.37,,,0.37,Wunderground v.1.15,2013-05-24 14:30:00,
2013-05-24 10:40:00,75.4,72.9,30.01,ENE,74,10.0,10.0,92,0.09,,,0.38,Wunderground v.1.15,2013-05-24 14:40:00,
2013-05-24 10:50:00,76.0,73.8,30.01,SE,127,10.0,10.0,93,0.07,,,0.39,Wunderground v.1.15,2013-05-24 14:50:00,
2013-05-24 11:00:00,76.3,74.1,30.01,ESE,107,11.0,11.0,93,0.06,,,0.40,Wunderground v.1.15,2013-05-24 15:00:00,
2013-05-24 11:10:00,75.4,73.2,30.01,East,83,13.0,16.0,93,0.04,,,0.40,Wunderground v.1.15,2013-05-24 15:10:00,
2013-05-24 11:20:00,75.3,73.1,30.01,East,95,12.0,12.0,93,0.00,,,0.40,Wunderground v.1.15,2013-05-24 15:20:00,
2013-05-24 11:30:00,75.8,73.6,30.00,ENE,74,11.0,13.0,93,0.00,,,0.40,Wunderground v.1.15,2013-05-24 15:30:00,
2013-05-24 11:40:00,76.0,73.8,30.00,ENE,78,10.0,15.0,93,0.00,,,0.40,Wunderground v.1.15,2013-05-24 15:40:00,
2013-05-24 11:50:00,76.7,74.2,30.00,NE,43,9.0,12.0,92,0.00,,,0.40,Wunderground v.1.15,2013-05-24 15:50:00,
2013-05-24 12:00:00,77.6,75.1,30.00,East,79,10.0,15.0,92,0.00,,,0.40,Wunderground v.1.15,2013-05-24 16:00:00,
2013-05-24 12:10:00,78.5,75.0,30.00,East,92,10.0,13.0,89,0.00,,,0.40,Wunderground v.1.15,2013-05-24 16:10:00,
2013-05-24 12:20:00,79.6,75.0,30.00,East,93,12.0,12.0,86,0.00,,,0.40,Wunderground v.1.15,2013-05-24 16:20:00,
2013-05-24 12:40:00,79.4,74.5,30.00,ENE,77,10.0,10.0,85,0.00,,,0.40,Wunderground v.1.15,2013-05-24 16:40:00,
2013-05-24 12:50:00,79.8,74.9,30.00,ENE,76,11.0,11.0,85,0.00,,,0.40,Wunderground v.1.15,2013-05-24 16:50:00,
2013-05-24 13:00:00,79.9,73.5,30.00,East,83,13.0,13.0,81,0.00,,,0.40,Wunderground v.1.15,2013-05-24 17:00:00,
2013-05-24 13:10:00,79.9,73.2,30.00,ENE,59,13.0,13.0,80,0.00,,,0.40,Wunderground v.1.15,2013-05-24 17:10:00,
2013-05-24 13:20:00,80.3,74.3,29.99,ENE,72,11.0,11.0,82,0.00,,,0.40,Wunderground v.1.15,2013-05-24 17:20:00,
2013-05-24 13:30:00,81.6,75.2,29.98,ENE,61,10.0,11.0,81,0.00,,,0.40,Wunderground v.1.15,2013-05-24 17:30:00,
2013-05-24 13:40:00,82.4,75.2,29.98,East,86,11.0,14.0,79,0.00,,,0.40,Wunderground v.1.15,2013-05-24 17:40:00,
2013-05-24 13:50:00,82.4,75.6,29.98,ENE,76,10.0,10.0,80,0.00,,,0.40,Wunderground v.1.15,2013-05-24 17:50:00,
2013-05-24 14:00:00,80.5,73.0,29.98,ENE,60,12.0,13.0,78,0.00,,,0.40,Wunderground v.1.15,2013-05-24 18:00:00,
2013-05-24 14:10:00,80.7,73.2,29.98,ENE,75,13.0,13.0,78,0.00,,,0.40,Wunderground v.1.15,2013-05-24 18:10:00,
2013-05-24 14:20:00,80.9,73.4,29.98,ENE,74,11.0,15.0,78,0.00,,,0.40,Wunderground v.1.15,2013-05-24 18:20:00,
2013-05-24 14:30:00,80.9,73.8,29.97,ENE,76,9.0,18.0,79,0.00,,,0.40,Wunderground v.1.15,2013-05-24 18:30:00,
2013-05-24 14:40:00,82.6,74.7,29.97,ENE,74,12.0,12.0,77,0.00,,,0.40,Wunderground v.1.15,2013-05-24 18:40:00,
2013-05-24 14:50:00,83.2,75.6,29.97,East,82,10.0,11.0,78,0.00,,,0.40,Wunderground v.1.15,2013-05-24 18:50:00,
2013-05-24 15:00:00,82.0,75.2,29.96,East,81,10.0,10.0,80,0.00,,,0.40,Wunderground v.1.15,2013-05-24 19:00:00,
2013-05-24 15:10:00,81.6,75.2,29.96,ENE,63,10.0,12.0,81,0.00,,,0.40,Wunderground v.1.15,2013-05-24 19:10:00,
2013-05-24 15:20:00,81.1,73.6,29.96,NNE,30,10.0,12.0,78,0.00,,,0.40,Wunderground v.1.15,2013-05-24 19:20:00,
2013-05-24 15:30:00,81.2,74.1,29.96,ESE,118,10.0,10.0,79,0.00,,,0.40,Wunderground v.1.15,2013-05-24 19:30:00,
2013-05-24 15:40:00,81.6,74.1,29.96,ENE,70,9.0,9.0,78,0.00,,,0.40,Wunderground v.1.15,2013-05-24 19:40:00,
2013-05-24 15:50:00,81.8,74.3,29.96,East,94,11.0,11.0,78,0.00,,,0.40,Wunderground v.1.15,2013-05-24 19:50:00,
2013-05-24 16:00:00,81.6,74.5,29.96,East,88,8.0,9.0,79,0.00,,,0.40,Wunderground v.1.15,2013-05-24 20:00:00,
2013-05-24 16:10:00,80.9,74.1,29.96,ENE,63,9.0,10.0,80,0.00,,,0.40,Wunderground v.1.15,2013-05-24 20:10:00,
2013-05-24 16:20:00,80.7,74.3,29.96,ESE,118,11.0,11.0,81,0.00,,,0.40,Wunderground v.1.15,2013-05-24 20:20:00,
2013-05-24 16:30:00,80.3,74.3,29.97,East,90,11.0,11.0,82,0.00,,,0.40,Wunderground v.1.15,2013-05-24 20:30:00,
2013-05-24 16:40:00,80.5,74.9,29.97,ENE,71,10.0,11.0,83,0.00,,,0.40,Wunderground v.1.15,2013-05-24 20:40:00,
2013-05-24 16:50:00,80.7,74.7,29.96,ENE,75,12.0,12.0,82,0.00,,,0.40,Wunderground v.1.15,2013-05-24 20:50:00,
2013-05-24 17:00:00,80.3,74.3,29.96,East,101,10.0,12.0,82,0.00,,,0.40,Wunderground v.1.15,2013-05-24 21:00:00,
2013-05-24 17:10:00,79.8,74.9,29.96,ENE,59,10.0,10.0,85,0.00,,,0.40,Wunderground v.1.15,2013-05-24 21:10:00,
2013-05-24 17:20:00,79.6,74.7,29.96,ENE,63,8.0,8.0,85,0.00,,,0.40,Wunderground v.1.15,2013-05-24 21:20:00,
2013-05-24 17:30:00,79.6,74.3,29.96,ENE,64,7.0,7.0,84,0.00,,,0.40,Wunderground v.1.15,2013-05-24 21:30:00,
2013-05-24 17:40:00,79.6,74.3,29.96,East,98,8.0,8.0,84,0.00,,,0.40,Wunderground v.1.15,2013-05-24 21:40:00,
2013-05-24 17:50:00,79.8,74.5,29.95,ENE,70,9.0,14.0,84,0.00,,,0.40,Wunderground v.1.15,2013-05-24 21:50:00,
2013-05-24 18:00:00,79.4,74.1,29.96,ENE,61,11.0,11.0,84,0.00,,,0.40,Wunderground v.1.15,2013-05-24 22:00:00,
2013-05-24 18:10:00,77.9,73.4,29.96,SE,124,13.0,13.0,86,1.23,,,0.43,Wunderground v.1.15,2013-05-24 22:10:00,
2013-05-24 18:20:00,76.1,73.0,29.98,East,86,10.0,10.0,90,0.12,,,0.45,Wunderground v.1.15,2013-05-24 22:20:00,
2013-05-24 18:30:00,76.0,73.5,29.98,East,79,8.0,11.0,92,0.11,,,0.47,Wunderground v.1.15,2013-05-24 22:30:00,
2013-05-24 18:40:00,76.3,74.1,29.98,ENE,67,8.0,11.0,93,0.06,,,0.48,Wunderground v.1.15,2013-05-24 22:40:00,
2013-05-24 18:50:00,76.3,74.1,29.99,ENE,72,9.0,9.0,93,0.04,,,0.48,Wunderground v.1.15,2013-05-24 22:50:00,
2013-05-24 19:00:00,76.0,73.8,29.99,NNE,33,9.0,9.0,93,0.00,,,0.48,Wunderground v.1.15,2013-05-24 23:00:00,
2013-05-24 19:10:00,76.0,74.1,29.99,ENE,59,7.0,7.0,94,0.00,,,0.48,Wunderground v.1.15,2013-05-24 23:10:00,
2013-05-24 19:20:00,75.8,73.9,29.99,NE,46,6.0,10.0,94,0.00,,,0.48,Wunderground v.1.15,2013-05-24 23:20:00,
2013-05-24 19:30:00,75.6,73.8,30.00,NE,50,7.0,7.0,94,0.00,,,0.48,Wunderground v.1.15,2013-05-24 23:30:00,
2013-05-24 19:40:00,75.8,74.3,30.00,ENE,76,7.0,7.0,95,0.00,,,0.48,Wunderground v.1.15,2013-05-24 23:40:00,
2013-05-24 19:50:00,75.8,73.9,30.00,East,92,8.0,8.0,94,0.00,,,0.49,Wunderground v.1.15,2013-05-24 23:50:00,
2013-05-24 20:00:00,75.4,73.6,30.01,East,86,10.0,10.0,94,0.00,,,0.49,Wunderground v.1.15,2013-05-25 00:00:00,